When you browse on this site, cookies collect data to enhance your experience and personalize the content and advertising you see.
Visit our Privacy Policy to learn more. By continuing to use the site, you agree to this use of cookies and data.
  • En España
  • Lista de países
  • Para 7 días
  • Temperatura del agua
  • Mapa Satelital
  • El tiempo en el mapa
  • Informadores
  • user-avatar
    Iniciar sesión

    Tiempo cada hora Igls

    Hoy, 20 Noviembre, Martes

    Tiempo Temperatura Precipitaciones Viento Presión Humedad
    00:00 -3°C° 0 mm 2 mps 675 mmHg 78%
    01:00 -2°C° 0 mm 3 mps 675 mmHg 74%
    02:00 -2°C° 0.1 mm 2 mps 675 mmHg 75%
    03:00 -1°C° 0.1 mm 2 mps 675 mmHg 75%
    04:00 -1°C° 0.1 mm 2 mps 674 mmHg 76%
    05:00 -1°C° 0.3 mm 2 mps 674 mmHg 77%
    06:00 -1°C° 0.3 mm 2 mps 674 mmHg 78%
    07:00 -1°C° 0 mm 2 mps 674 mmHg 76%
    08:00 +2°C° 0.1 mm 2 mps 674 mmHg 73%
    09:00 +3°C° 0.1 mm 2 mps 674 mmHg 70%
    10:00 +4°C° 0.1 mm 2 mps 674 mmHg 68%
    11:00 +5°C° 0 mm 2 mps 675 mmHg 66%
    12:00 +6°C° 0 mm 2 mps 675 mmHg 64%
    13:00 +7°C° 0 mm 2 mps 675 mmHg 62%
    14:00 +6°C° 0 mm 2 mps 675 mmHg 68%
    15:00 +5°C° 0 mm 2 mps 675 mmHg 74%
    16:00 +4°C° 0 mm 2 mps 675 mmHg 80%
    17:00 +3°C° 0 mm 2 mps 675 mmHg 83%
    18:00 +3°C° 0 mm 1 mps 676 mmHg 85%
    19:00 +1°C° 0 mm 1 mps 676 mmHg 88%
    20:00 +2°C° 0 mm 1 mps 677 mmHg 87%
    21:00 +2°C° 0 mm 1 mps 677 mmHg 86%
    22:00 +2°C° 0 mm 1 mps 678 mmHg 85%
    23:00 +1°C° 0 mm 2 mps 678 mmHg 83%

    Mañana, 21 Noviembre, Miércoles

    Tiempo Temperatura Precipitaciones Viento Presión Humedad
    00:00 +1°C° 0 mm 2 mps 678 mmHg 82%
    01:00 +1°C° 0 mm 2 mps 678 mmHg 80%
    02:00 +1°C° 0 mm 2 mps 678 mmHg 80%
    03:00 +1°C° 0 mm 2 mps 678 mmHg 79%
    04:00 +1°C° 0 mm 2 mps 678 mmHg 79%
    05:00 +1°C° 0 mm 2 mps 678 mmHg 78%
    06:00 +1°C° 0 mm 2 mps 678 mmHg 78%
    07:00 +1°C° 0 mm 2 mps 678 mmHg 78%
    08:00 +3°C° 0 mm 2 mps 679 mmHg 73%
    09:00 +6°C° 0 mm 1 mps 679 mmHg 69%
    10:00 +8°C° 0 mm 1 mps 680 mmHg 64%
    11:00 +9°C° 0 mm 1 mps 680 mmHg 64%
    12:00 +9°C° 0 mm 1 mps 680 mmHg 63%
    13:00 +9°C° 0 mm 2 mps 680 mmHg 62%
    14:00 +9°C° 0 mm 1 mps 680 mmHg 69%
    15:00 +7°C° 0 mm 1 mps 680 mmHg 76%
    16:00 +6°C° 0 mm 1 mps 680 mmHg 83%
    17:00 +5°C° 0 mm 1 mps 680 mmHg 84%
    18:00 +4°C° 0 mm 1 mps 681 mmHg 85%
    19:00 +4°C° 0 mm 1 mps 681 mmHg 86%
    20:00 +4°C° 0 mm 1 mps 681 mmHg 86%
    21:00 +4°C° 0 mm 1 mps 682 mmHg 85%
    22:00 +4°C° 0 mm 1 mps 682 mmHg 85%
    23:00 +4°C° 0 mm 1 mps 682 mmHg 85%

    Pasado mañana, 22 Noviembre, Jueves

    Tiempo Temperatura Precipitaciones Viento Presión Humedad
    00:00 +4°C° 0 mm 1 mps 682 mmHg 84%
    01:00 +4°C° 0 mm 1 mps 682 mmHg 84%
    02:00 +4°C° 0 mm 1 mps 683 mmHg 85%
    03:00 +4°C° 0 mm 1 mps 683 mmHg 85%
    04:00 +4°C° 0 mm 1 mps 683 mmHg 85%
    05:00 +3°C° 0.1 mm 1 mps 683 mmHg 86%
    06:00 +2°C° 0.1 mm 0 mps 683 mmHg 87%
    07:00 +2°C° 0.1 mm 0 mps 683 mmHg 88%
    08:00 +3°C° 0.1 mm 0 mps 683 mmHg 82%
    09:00 +5°C° 0.1 mm 0 mps 684 mmHg 77%
    10:00 +6°C° 0.1 mm 0 mps 684 mmHg 72%
    11:00 +6°C° 0.1 mm 0 mps 684 mmHg 70%
    12:00 +8°C° 0.1 mm 1 mps 684 mmHg 68%
    13:00 +9°C° 0.1 mm 1 mps 684 mmHg 66%
    14:00 +8°C° 0.1 mm 1 mps 684 mmHg 72%
    15:00 +6°C° 0.1 mm 0 mps 684 mmHg 78%
    16:00 +5°C° 0.1 mm 0 mps 684 mmHg 84%
    17:00 +4°C° 0.1 mm 0 mps 684 mmHg 86%
    18:00 +3°C° 0.1 mm 0 mps 685 mmHg 88%
    19:00 +3°C° 0.1 mm 0 mps 685 mmHg 91%
    20:00 +3°C° 0 mm 1 mps 685 mmHg 90%
    21:00 +3°C° 0 mm 1 mps 686 mmHg 89%
    22:00 +3°C° 0 mm 1 mps 686 mmHg 89%
    23:00 +3°C° 0 mm 1 mps 686 mmHg 88%

    23 Noviembre, Viernes

    Tiempo Temperatura Precipitaciones Viento Presión Humedad
    00:00 +3°C° 0 mm 1 mps 686 mmHg 87%
    01:00 +3°C° 0 mm 1 mps 686 mmHg 86%
    02:00 +3°C° 0 mm 1 mps 686 mmHg 85%
    03:00 +3°C° 0 mm 1 mps 686 mmHg 84%
    04:00 +2°C° 0 mm 1 mps 686 mmHg 83%
    05:00 +2°C° 0 mm 1 mps 686 mmHg 82%
    06:00 +2°C° 0 mm 1 mps 686 mmHg 81%
    07:00 +1°C° 0 mm 2 mps 686 mmHg 81%
    08:00 +3°C° 0 mm 2 mps 687 mmHg 76%
    09:00 +4°C° 0 mm 2 mps 687 mmHg 72%
    10:00 +6°C° 0 mm 2 mps 687 mmHg 68%
    11:00 +7°C° 0 mm 2 mps 687 mmHg 65%
    12:00 +8°C° 0 mm 2 mps 686 mmHg 62%
    13:00 +9°C° 0 mm 2 mps 686 mmHg 60%
    14:00 +8°C° 0 mm 2 mps 686 mmHg 66%
    15:00 +6°C° 0 mm 2 mps 685 mmHg 72%
    16:00 +5°C° 0 mm 2 mps 685 mmHg 79%
    17:00 +5°C° 0 mm 2 mps 685 mmHg 80%
    18:00 +4°C° 0 mm 2 mps 685 mmHg 81%
    19:00 +4°C° 0 mm 2 mps 684 mmHg 82%
    20:00 +4°C° 0.1 mm 2 mps 684 mmHg 83%
    21:00 +4°C° 0.1 mm 2 mps 684 mmHg 83%
    22:00 +3°C° 0.1 mm 3 mps 684 mmHg 83%
    23:00 +3°C° 0.1 mm 3 mps 683 mmHg 84%

    24 Noviembre, Sábado

    Tiempo Temperatura Precipitaciones Viento Presión Humedad
    00:00 +3°C° 0.1 mm 3 mps 682 mmHg 85%
    01:00 +3°C° 0.1 mm 3 mps 682 mmHg 86%
    02:00 +3°C° 0.1 mm 3 mps 681 mmHg 86%
    03:00 +3°C° 0.1 mm 3 mps 680 mmHg 86%
    04:00 +4°C° 0.1 mm 3 mps 680 mmHg 86%
    05:00 +4°C° 0.1 mm 3 mps 679 mmHg 86%
    06:00 +4°C° 0.1 mm 3 mps 679 mmHg 86%
    07:00 +4°C° 0.1 mm 3 mps 678 mmHg 86%
    08:00 +5°C° 0.3 mm 3 mps 678 mmHg 85%
    09:00 +7°C° 0.3 mm 3 mps 678 mmHg 84%
    10:00 +7°C° 0.3 mm 3 mps 678 mmHg 82%
    11:00 +7°C° 0.4 mm 3 mps 678 mmHg 83%
    12:00 +7°C° 0.4 mm 3 mps 678 mmHg 83%
    13:00 +8°C° 0.4 mm 3 mps 678 mmHg 84%
    14:00 +7°C° 0.5 mm 2 mps 679 mmHg 87%
    15:00 +6°C° 0.5 mm 2 mps 679 mmHg 91%
    16:00 +6°C° 0.5 mm 1 mps 679 mmHg 94%
    17:00 +6°C° 0.4 mm 1 mps 679 mmHg 94%
    18:00 +6°C° 0.4 mm 1 mps 679 mmHg 95%
    19:00 +5°C° 0.4 mm 1 mps 680 mmHg 95%
    20:00 +5°C° 0.2 mm 1 mps 680 mmHg 95%
    21:00 +5°C° 0.2 mm 1 mps 680 mmHg 95%
    22:00 +5°C° 0.2 mm 1 mps 680 mmHg 95%
    23:00 +5°C° 0.2 mm 1 mps 680 mmHg 95%

    25 Noviembre, Domingo

    Tiempo Temperatura Precipitaciones Viento Presión Humedad
    00:00 +4°C° 0.2 mm 1 mps 680 mmHg 94%
    01:00 +4°C° 0.2 mm 1 mps 680 mmHg 94%
    02:00 +4°C° 0.1 mm 1 mps 680 mmHg 94%
    03:00 +4°C° 0.1 mm 1 mps 680 mmHg 94%
    04:00 +4°C° 0.1 mm 1 mps 680 mmHg 94%
    05:00 +3°C° 0.1 mm 1 mps 680 mmHg 93%
    06:00 +3°C° 0.1 mm 1 mps 680 mmHg 93%
    07:00 +3°C° 0.1 mm 1 mps 680 mmHg 93%
    08:00 +4°C° 0 mm 1 mps 680 mmHg 89%
    09:00 +5°C° 0 mm 1 mps 680 mmHg 85%
    10:00 +5°C° 0 mm 1 mps 680 mmHg 82%
    11:00 +6°C° 0 mm 1 mps 680 mmHg 78%
    12:00 +7°C° 0 mm 1 mps 680 mmHg 74%
    13:00 +7°C° 0 mm 1 mps 680 mmHg 70%
    14:00 +6°C° 0 mm 1 mps 680 mmHg 76%
    15:00 +6°C° 0 mm 1 mps 679 mmHg 82%
    16:00 +5°C° 0 mm 1 mps 679 mmHg 87%
    17:00 +4°C° 0.1 mm 1 mps 679 mmHg 90%
    18:00 +4°C° 0.1 mm 1 mps 680 mmHg 92%
    19:00 +4°C° 0.1 mm 1 mps 680 mmHg 94%
    20:00 +3°C° 0.2 mm 1 mps 680 mmHg 94%
    21:00 +3°C° 0.2 mm 1 mps 680 mmHg 94%
    22:00 +3°C° 0.2 mm 1 mps 680 mmHg 94%
    23:00 +3°C° 0.2 mm 1 mps 680 mmHg 95%
    Mostrar más